This demonstration page uses our WeatherBlox Daily Observations layout. Learn more.

36.19886, -115.1175

Hourly Observations for July 15, 2019

Temp ( °F °C ) Dew Point ( °F °C ) Humidity (%) Winds ( mph kmh ) Pressure ( in mb ) Visibility ( mi km ) Precip ( " mm )
12:53 am 00:53 Clear 91 32.8 29 -1.7 11 11 NNW 7 11 29.83 1010 10 16.09344 0 0
1:53 am 01:53 Clear 91 32.8 29 -1.7 11 11 NNE 8 13 29.83 1010 10 16.09344 0 0
2:53 am 02:53 Clear 90 32.2 28 -2.2 11 11 ESE 5 7 29.83 1010 10 16.09344 0 0
3:53 am 03:53 Clear 91 32.8 31 -0.6 12 12 SSW 5 7 29.83 1010 10 16.09344 0 0
4:53 am 04:53 Clear 86 30 30 -1.1 13 13 E 8 13 29.83 1010 10 16.09344 0 0
5:53 am 05:53 Sunny 83 28.3 29 -1.7 14 14 WNW 3 6 29.85 1011 10 16.09344 0 0
6:53 am 06:53 Sunny 85 29.4 31 -0.6 14 14 Calm 29.85 1011 10 16.09344 0 0
7:53 am 07:53 Sunny 90 32.2 32 0 13 13 N 9 15 29.85 1011 10 16.09344 0 0
8:53 am 08:53 Sunny 94 34.4 32 0 11 11 N 6 9 29.85 1011 10 16.09344 0 0
9:53 am 09:53 Sunny 96 35.6 29 -1.7 9 9 VRB 3 6 29.85 1011 10 16.09344 0 0
10:53 am 10:53 Sunny 101 38.3 32 0 9 9 E 7 11 29.85 1011 10 16.09344 0 0
11:53 am 11:53 Sunny 104 40 27 -2.8 7 7 undefined N/A 29.83 1010 10 16.09344 0 0
12:53 pm 12:53 Sunny 105 40.6 24 -4.4 6 6 undefined N/A 29.8 1009 10 16.09344 0 0
1:51 pm 13:51 Sunny 108 42 25 -4 5 5 S 18 30 29.62 1003 10 16.09344 0 0
1:53 pm 13:53 Sunny 107 41.7 25 -3.9 5 5 SSW 15 24 29.77 1008 10 16.09344 0 0
2:53 pm 14:53 Sunny 108 42.2 23 -5 5 5 SSW 17 28 29.74 1007 10 16.09344 0 0
3:53 pm 15:53 Sunny 107 41.7 23 -5 5 5 W 18 30 29.74 1007 10 16.09344 0 0
4:53 pm 16:53 Sunny 108 42.2 21 -6.1 4 4 SW 15 24 29.71 1006 10 16.09344 0 0
5:53 pm 17:53 Sunny 106 41.1 20 -6.7 5 5 WSW 15 24 29.71 1006 10 16.09344 0 0
6:53 pm 18:53 Sunny 104 40 19 -7.2 5 5 SW 14 22 29.71 1006 10 16.09344 0 0
7:53 pm 19:53 Sunny 101 38.3 17 -8.3 5 5 SW 13 20 29.68 1005 10 16.09344 0 0
8:53 pm 20:53 Clear 99 37.2 19 -7.2 5 5 SSW 9 15 29.71 1006 10 16.09344 0 0
9:53 pm 21:53 Clear 96 35.6 20 -6.7 6 6 SSW 12 19 29.71 1006 10 16.09344 0 0
10:53 pm 22:53 Clear 94 34.4 22 -5.6 7 7 WSW 6 9 29.71 1006 10 16.09344 0 0
11:53 pm 23:53 Clear 92 33.3 24 -4.4 8 8 WNW 5 7 29.74 1007 10 16.09344 0 0

Powered by AerisWeather